| time (UTC) | temp C | wind direction | speed KPH | gust KPH | rain 1hr cm | rain 24hr cm | rain mn cm | humidity % | barometer mb |
| 20260831164535 | 18 | 170 | 6.4 | 12.9 | 0.03 | 0.43 | 0.03 | 92 | 1020.3 |
| 20260831163027 | 18 | 180 | 1.6 | 11.3 | 0.00 | 0.41 | 0.00 | 92 | 1020.4 |
| 20260831161530 | 18 | 178 | 4.8 | 14.5 | 0.00 | 0.41 | 0.00 | 89 | 1020.6 |
| 20260831160013 | 18 | 163 | 3.2 | 11.3 | 0.00 | 0.41 | 0.00 | 89 | 1020.6 |
| 20260831154544 | 18 | 186 | 8.0 | 14.5 | 0.00 | 0.41 | 0.00 | 89 | 1020.6 |
| 20260831153027 | 18 | 153 | 8.0 | 12.9 | 0.00 | 0.41 | 0.00 | 91 | 1020.4 |
| 20260831151527 | 18 | 200 | 3.2 | 14.5 | 0.00 | 0.41 | 0.00 | 92 | 1020.5 |
| 20260831150012 | 18 | 153 | 3.2 | 16.1 | 0.00 | 0.41 | 0.00 | 92 | 1020.5 |
| 20260831144517 | 18 | 146 | 6.4 | 17.7 | 0.00 | 0.41 | 0.00 | 93 | 1020.4 |
| 20260831143022 | 18 | 163 | 6.4 | 17.7 | 0.00 | 0.41 | 0.00 | 95 | 1020.4 |
| 20260831141527 | 17 | 155 | 4.8 | 12.9 | 0.00 | 0.41 | 0.00 | 96 | 1020.3 |
| 20260831140031 | 17 | 106 | 3.2 | 14.5 | 0.00 | 0.41 | 0.00 | 97 | 1020.3 |
| 20260831134512 | 17 | 183 | 8.0 | 17.7 | 0.00 | 0.41 | 0.00 | 98 | 1020.3 |
| 20260831133016 | 16 | 182 | 4.8 | 9.7 | 0.00 | 0.41 | 0.00 | 98 | 1020.5 |
| 20260831131525 | 16 | 165 | 1.6 | 9.7 | 0.00 | 0.41 | 0.00 | 98 | 1020.5 |
| 20260831130030 | 16 | 130 | 4.8 | 11.3 | 0.00 | 0.41 | 0.00 | 98 | 1020.5 |
| 20260831124531 | 16 | 192 | 3.2 | 8.0 | 0.00 | 0.41 | 0.00 | 98 | 1020.6 |
| 20260831123013 | 16 | 159 | 4.8 | 9.7 | 0.00 | 0.41 | 0.00 | 98 | 1020.3 |
| 20260831121521 | 16 | 188 | 3.2 | 8.0 | 0.00 | 0.41 | 0.00 | 98 | 1020.8 |
| 20260831120035 | 15 | 188 | 1.6 | 4.8 | 0.00 | 0.41 | 0.00 | 98 | 1020.9 |
| 20260831114536 | 15 | 241 | 1.6 | 4.8 | 0.00 | 0.41 | 0.00 | 98 | 1020.9 |
| 20260831113035 | 15 | 241 | 1.6 | 4.8 | 0.00 | 0.41 | 0.00 | 98 | 1020.8 |
| 20260831111519 | 15 | 241 | 1.6 | 4.8 | 0.00 | 0.41 | 0.00 | 98 | 1020.7 |
| 20260831110025 | 15 | 241 | 0.0 | 3.2 | 0.00 | 0.41 | 0.00 | 98 | 1020.7 |
| 20260831104546 | 15 | 241 | 0.0 | 0.0 | 0.00 | 0.41 | 0.00 | 98 | 1020.6 |
| 20260831103031 | 15 | 241 | 0.0 | 0.0 | 0.00 | 0.41 | 0.00 | 98 | 1020.5 |
| 20260831101536 | 15 | 241 | 0.0 | 0.0 | 0.00 | 0.41 | 0.00 | 98 | 1020.3 |
| 20260831100018 | 15 | 241 | 0.0 | 3.2 | 0.00 | 0.41 | 0.00 | 98 | 1020.2 |
| 20260831094530 | 15 | 241 | 0.0 | 1.6 | 0.00 | 0.41 | 0.00 | 98 | 1020.1 |
| 20260831093040 | 15 | 241 | 0.0 | 0.0 | 0.00 | 0.41 | 0.00 | 98 | 1020.2 |
| 20260831091530 | 15 | 241 | 0.0 | 3.2 | 0.00 | 0.41 | 0.00 | 98 | 1020.2 |
| 20260831090039 | 15 | 241 | 0.0 | 3.2 | 0.00 | 0.41 | 0.00 | 98 | 1020.2 |
| 20260831084524 | 15 | 241 | 0.0 | 1.6 | 0.00 | 0.41 | 0.00 | 98 | 1020.3 |
| 20260831083031 | 15 | 241 | 0.0 | 1.6 | 0.00 | 0.41 | 0.00 | 98 | 1020.3 |
| 20260831081531 | 15 | 241 | 0.0 | 0.0 | 0.00 | 0.41 | 0.00 | 98 | 1020.4 |
| 20260831080036 | 15 | 241 | 0.0 | 1.6 | 0.00 | 0.41 | 0.00 | 98 | 1020.4 |
| 20260831074533 | 15 | 241 | 0.0 | 3.2 | 0.00 | 0.41 | 0.00 | 98 | 1020.2 |
| 20260831073029 | 15 | 241 | 0.0 | 3.2 | 0.00 | 0.41 | 0.00 | 98 | 1020.1 |
| 20260831071533 | 15 | 241 | 0.0 | 0.0 | 0.00 | 0.41 | 0.00 | 98 | 1020.4 |
| 20260831070038 | 15 | 241 | 0.0 | 3.2 | 0.00 | 0.41 | 0.00 | 98 | 1020.3 |
| 20260831064537 | 15 | 241 | 0.0 | 1.6 | 0.00 | 0.41 | 0.00 | 98 | 1020.2 |
| 20260831063025 | 16 | 241 | 0.0 | 1.6 | 0.00 | 0.41 | 0.00 | 98 | 1020.2 |
| 20260831061529 | 16 | 241 | 0.0 | 1.6 | 0.00 | 0.41 | 0.00 | 98 | 1020.3 |
| 20260831060030 | 16 | 241 | 0.0 | 0.0 | 0.00 | 0.41 | 0.00 | 98 | 1020.4 |
| 20260831054534 | 16 | 241 | 0.0 | 3.2 | 0.00 | 0.41 | 0.00 | 98 | 1020.5 |
| 20260831053035 | 16 | 241 | 0.0 | 1.6 | 0.00 | 0.41 | 0.00 | 98 | 1020.6 |
| 20260831051504 | 16 | 241 | 0.0 | 1.6 | 0.00 | 0.41 | 0.00 | 98 | 1020.9 |
| 20260831050007 | 16 | 241 | 0.0 | 3.2 | 0.00 | 0.41 | 0.00 | 98 | 1021.1 |
| 20260831044513 | 16 | 241 | 0.0 | 0.0 | 0.00 | 0.41 | 0.00 | 98 | 1021.0 |
| 20260831043019 | 16 | 241 | 0.0 | 1.6 | 0.00 | 0.41 | 0.00 | 98 | 1020.9 |
| 20260831041504 | 16 | 241 | 0.0 | 1.6 | 0.00 | 0.41 | 0.00 | 98 | 1020.8 |
| 20260831040006 | 16 | 241 | 0.0 | 0.0 | 0.00 | 0.41 | 0.00 | 98 | 1020.9 |
| 20260831034508 | 16 | 241 | 0.0 | 1.6 | 0.00 | 0.41 | 0.41 | 98 | 1020.9 |
| 20260831033014 | 16 | 241 | 0.0 | 1.6 | 0.00 | 0.41 | 0.41 | 98 | 1020.8 |
| 20260831031521 | 16 | 241 | 0.0 | 1.6 | 0.00 | 0.41 | 0.41 | 98 | 1020.5 |
| 20260831030004 | 16 | 241 | 0.0 | 3.2 | 0.00 | 0.41 | 0.41 | 98 | 1020.5 |
| 20260831024506 | 16 | 198 | 0.0 | 3.2 | 0.00 | 0.41 | 0.41 | 98 | 1020.5 |
| 20260831023014 | 16 | 198 | 0.0 | 3.2 | 0.00 | 0.41 | 0.41 | 98 | 1020.5 |
| 20260831021520 | 16 | 198 | 0.0 | 1.6 | 0.00 | 0.41 | 0.41 | 98 | 1020.5 |
| 20260831020025 | 16 | 198 | 0.0 | 0.0 | 0.00 | 0.41 | 0.41 | 98 | 1020.6 |
| 20260831014506 | 16 | 198 | 0.0 | 1.6 | 0.00 | 0.41 | 0.41 | 97 | 1020.5 |
| 20260831013011 | 16 | 198 | 0.0 | 1.6 | 0.00 | 0.41 | 0.41 | 97 | 1020.4 |
| 20260831011516 | 16 | 198 | 0.0 | 4.8 | 0.00 | 0.41 | 0.41 | 97 | 1020.4 |
| 20260831010025 | 16 | 260 | 3.2 | 6.4 | 0.00 | 0.41 | 0.41 | 97 | 1020.2 |
| 20260831004527 | 16 | 238 | 1.6 | 4.8 | 0.00 | 0.41 | 0.41 | 97 | 1020.3 |
| 20260831003008 | 16 | 202 | 1.6 | 6.4 | 0.00 | 0.41 | 0.41 | 97 | 1020.1 |
| 20260831001512 | 16 | 263 | 1.6 | 3.2 | 0.00 | 0.41 | 0.41 | 97 | 1019.9 |
| 20260831000021 | 16 | 243 | 0.0 | 4.8 | 0.00 | 0.41 | 0.41 | 97 | 1019.8 |
| 20260830234550 | 16 | 285 | 0.0 | 4.8 | 0.00 | 0.41 | 0.41 | 97 | 1019.6 |
| 20260830233033 | 16 | 263 | 0.0 | 9.7 | 0.00 | 0.41 | 0.41 | 97 | 1019.4 |
| 20260830231513 | 17 | 267 | 1.6 | 4.8 | 0.00 | 0.41 | 0.41 | 97 | 1019.4 |
| 20260830230018 | 16 | 263 | 1.6 | 9.7 | 0.00 | 0.41 | 0.41 | 97 | 1019.4 |
| 20260830224525 | 16 | 268 | 3.2 | 11.3 | 0.00 | 0.41 | 0.41 | 97 | 1019.5 |
| 20260830223035 | 16 | 328 | 1.6 | 6.4 | 0.00 | 0.41 | 0.41 | 97 | 1019.5 |
| 20260830221536 | 16 | 235 | 1.6 | 6.4 | 0.00 | 0.41 | 0.41 | 97 | 1019.4 |
| 20260830220014 | 16 | 225 | 3.2 | 4.8 | 0.00 | 0.41 | 0.41 | 97 | 1019.4 |
| 20260830214520 | 16 | 249 | 1.6 | 6.4 | 0.00 | 0.41 | 0.41 | 97 | 1019.4 |
| 20260830213027 | 16 | 261 | 1.6 | 6.4 | 0.00 | 0.41 | 0.41 | 97 | 1019.3 |
| 20260830211534 | 16 | 161 | 3.2 | 6.4 | 0.00 | 0.41 | 0.41 | 97 | 1019.4 |
| 20260830210012 | 16 | 242 | 0.0 | 6.4 | 0.00 | 0.41 | 0.41 | 97 | 1019.5 |
| 20260830204516 | 16 | 218 | 1.6 | 4.8 | 0.00 | 0.41 | 0.41 | 96 | 1019.6 |
| 20260830203042 | 16 | 264 | 1.6 | 4.8 | 0.00 | 0.41 | 0.41 | 96 | 1019.6 |
| 20260830201531 | 16 | 217 | 0.0 | 3.2 | 0.00 | 0.41 | 0.41 | 96 | 1019.6 |
| 20260830200032 | 16 | 286 | 0.0 | 3.2 | 0.05 | 0.41 | 0.41 | 96 | 1019.6 |
| 20260830194512 | 16 | 227 | 0.0 | 4.8 | 0.05 | 0.41 | 0.41 | 96 | 1019.5 |
| 20260830193023 | 16 | 252 | 1.6 | 8.0 | 0.10 | 0.41 | 0.41 | 96 | 1019.6 |
| 20260830191527 | 16 | 269 | 1.6 | 6.4 | 0.20 | 0.41 | 0.41 | 95 | 1020.1 |
| 20260830190036 | 16 | 290 | 3.2 | 11.3 | 0.23 | 0.36 | 0.36 | 95 | 1020.3 |
| 20260830184534 | 16 | 319 | 4.8 | 9.7 | 0.36 | 0.36 | 0.36 | 95 | 1020.4 |
| 20260830183022 | 16 | 302 | 1.6 | 9.7 | 0.30 | 0.30 | 0.30 | 94 | 1020.4 |
| 20260830181524 | 16 | 322 | 1.6 | 16.1 | 0.20 | 0.20 | 0.20 | 92 | 1020.5 |
| 20260830180036 | 17 | 320 | 3.2 | 6.4 | 0.13 | 0.13 | 0.13 | 89 | 1020.4 |
| 20260830174539 | 18 | 232 | 1.6 | 6.4 | 0.00 | 0.00 | 0.00 | 85 | 1020.4 |
| 20260830173050 | 18 | 293 | 1.6 | 14.5 | 0.00 | 0.00 | 0.00 | 81 | 1020.2 |
| 20260830171521 | 20 | 290 | 1.6 | 8.0 | 0.00 | 0.00 | 0.00 | 77 | 1020.0 |
| 20260830170003 | 20 | 305 | 3.2 | 8.0 | 0.00 | 0.00 | 0.00 | 75 | 1020.0 |